Location: Appeville
(49.3218°N, 1.3427°W)
Time: 17:44:27
(UTC+00:00)

Cosmos 2221 Rocket - Pass Details

Date: 08 December 2019
Orbit: 621 x 648 km, 82.5° (Epoch: 22 January)

Event Time Altitude Azimuth Distance (km) Brightness Sun altitude
Exits shadow 06:35:00 - 343° (NNW) 2,649 6.4 -11.2°
Reaches altitude 10° 06:36:38 10° 339° (NNW) 2,003 5.8 -10.9°
Maximum altitude 06:40:51 45° 267° (W) 856 3.9 -10.3°
Drops below altitude 10° 06:45:02 10° 195° (SSW) 1,986 6.3 -9.6°
Sets 06:47:19 0° 189° (S) 2,888 7.2 -9.3°
